Flag for Mexico Weather past 2 weeks in Puerto Vallarta, Jalisco, Mexico

Now
79 °F

Passing clouds.


Feels Like: 82 °F
Forecast: 79 / 91 °F
Wind: 3 mph from Northwest

Location: Puerto Vallarta / Lic

Current Time: Aug 2, 2014 at 2:58:01 AM

Latest Report: Aug 2, 2014 at 2:01 AM


Visibility: 12 mi

Pressure: 29.90 "Hg

Humidity: 84%

Dew point: 73 °F

Location of Puerto VallartaLocation

Historic Weather in Puerto Vallarta — Graph

°F

Puerto Vallarta temperature yesterday

Maximum temperature yesterday: 90 °F (at 5:53 PM)
Minimum temperature yesterday: 79 °F (at 9:53 AM)
Average temperature yesterday: 82 °F

Past Weeks' High & Low Weather Summary

 TemperatureHumidityPressure
High95 °F (Jul 21, 2:44 PM)94% (Jul 23, 10:46 PM)30.00 "Hg (Jul 23, 10:46 PM)
Low72 °F (Jul 23, 10:46 PM)47% (Jul 20, 12:46 PM)29.73 "Hg (Jul 23, 6:50 PM)
Average84 °F74%29.90 "Hg
* Reported Jul 17 10:45 PM — Aug 1 10:45 PM, Puerto Vallarta, Weather by CustomWeather, © 2014

Note: Actual official high and low records may vary slightly from our data, if they occured in-between our weather recording intervals... More about our weather records

Advertising

Puerto Vallarta weather history for previous 24 hours

 ConditionsComfort  
Time TempWeatherWind HumidityBarometerVisibility
10:45 PM
Aug 1
81 °FPassing clouds.No wind79%29.88 "Hg12 mi
9:47 PM81 °FPassing clouds.No wind79%29.85 "Hg15 mi
7:46 PM88 °FPartly sunny.2 mph59%29.88 "Hg15 mi
6:51 PM88 °FOvercast.5 mph59%29.84 "Hg15 mi
5:53 PM90 °FCloudy.3 mph59%29.87 "Hg15 mi
2:47 PM88 °FOvercast.7 mph62%29.92 "Hg12 mi
1:46 PM82 °FMostly cloudy.9 mph74%29.98 "Hg12 mi
12:52 PM81 °FMostly cloudy.13 mph79%29.94 "Hg10 mi
11:50 AM79 °FCloudy.7 mph79%29.99 "Hg7 mi
9:53 AM79 °FThunderstorms. Mostly cloudy.13 mph84%29.96 "Hg10 mi
8:49 AM82 °FCloudy.5 mph84%29.91 "Hg12 mi
7:49 AM81 °FPartly cloudy.5 mph89%29.91 "Hg12 mi
6:49 AM81 °FPassing clouds.No wind89%29.88 "Hg10 mi
5:45 AM81 °FPassing clouds.No wind89%29.90 "Hg10 mi
4:47 AM81 °FPassing clouds.No wind89%29.89 "Hg12 mi
3:47 AM81 °FPassing clouds.No wind89%29.87 "Hg12 mi
2:46 AM82 °FPassing clouds.No wind84%29.90 "Hg12 mi
Weather by CustomWeather, © 2014

See weather overviewHow to use our weather pages